Crater Lake National Park, OR

8:38 PM PDT on September 28, 2016 (GMT -0700)
Chiloquin Williamson River | | Change Station
Active Advisory: Fire Weather Warning

Elev 4173 ft 42.58 °N, 121.86 °W | Updated 17 seconds ago

Clear
Clear
58.1 °F
Feels Like 58.1 °F
N
0.0
Wind Variable Wind from SSW
Gusts 0.0 mph

Today
High -- | Low -- °F
--% Chance of Precip.
Yesterday
High -- | Low -- °F
Precip. -- in
Pressure 29.91 in
Visibility 10.0 miles
Clouds Clear
Dew Point 45 °F
Humidity 61%
Rainfall 0.00 in
Snow Depth Not available.
7:01 AM 6:53 PM
Waning Crescent, 3% visible
METAR KLMT 290253Z 33008KT 10SM CLR 21/08 A2998 RMK AO2 SLP126 T02110078 53003
Pressure 29.91 in
Visibility 10.0 miles
Clouds Clear
Dew Point 45 °F
Humidity 61%
Rainfall 0.00 in
Snow Depth Not available.
7:01 AM 6:53 PM
Waning Crescent, 3% visible
METAR KLMT 290253Z 33008KT 10SM CLR 21/08 A2998 RMK AO2 SLP126 T02110078 53003

10-Day Weather Forecast

Almanac

Astronomy

Sep. 28, 2016 Rise Set
Actual Time
Civil Twilight
Nautical Twilight
Astronomical Twilight
Moon
Length of Visible Light
Length of Day
Tomorrow will be .
, % of the Moon is Illuminated

Today's Extremes

State Highs State Lows

Community

WunderPhotos

Upload Photos

1,942,416 photos uploaded!

WunderBlog® & News

Nearby

Air Quality

  Air Quality AQ Index Pollutant
Not available.

Snow Depth

Station Depth Elevation

Earthquake Activity

City Distance Mag. Time & Date
Minimum magnitude displayed is 2.5.

Coastal Water Temperatures

Place Temperature

Stations

Nearby Weather Stations

Station Location Temp. Windchill Dew Point Humidity Wind Precip. Elev Updated Type
                   

Watches & Warnings

Fire Weather Warning
Issued: 1:27 PM PDT Sep. 28, 2016 – National Weather Service

... Red flag warning in effect from 1 PM to 7 PM PDT Thursday for
strong gusty wind with low humidity for fire weather zones 285
and 624...

* impacts: strong, gusty wind with low relative humidity and high
fire danger will likely contribute to a significant spread of
any new and existing fires.

* Affected area: eastern half of fire weather zone 285 in northern
California. Southeastern portion of fire weather zone 624 in
southern Oregon.

* Counties affected: in northern CA... eastern Modoc. In south
central or... extreme southeastern Klamath and southwestern
lake.

* Wind: southwest 15 to 20 mph with gusts up to 35 mph.

* Humidity: 14 to 18 percent.

* View the hazard area in detail at http://weather.Gov/Medford/hazard

Precautionary/preparedness actions...

* a red flag warning means that critical fire weather conditions
will occur shortly.

* Strong winds and low relative humidities will cause any existing
or new fires to spread very rapidly.

* One less spark, one less wildfire.



Visit US at www.Weather.Gov/Medford